Location: Ravensburg
(47.7866°N, 9.6124°E)
Time: 03:23:25
(UTC+02:00)

CAS-6 - Pass Details

Date: 16 March 2026
Orbit: 601 x 618 km, 97.8° (Epoch: 14 April)

Event Time Altitude Azimuth Distance (km) Brightness Sun altitude
Exits shadow 22:36:29 13° 336° (NNW) 1,753 ? -37.6°
Drops below altitude 10° 22:37:00 10° 338° (NNW) 1,957 ? -37.6°
Sets 22:39:14 0° 343° (NNW) 2,867 ? -37.8°
